Location: Bon Acre
(42.6442°N, 73.5758°W)
Time: 16:47:27
(UTC+00:00)

SL-08 R/B - Pass Details

Date: 14 December 2025
Orbit: 946 x 992 km, 83.0° (Epoch: 16 January)

Event Time Altitude Azimuth Distance (km) Brightness Sun altitude
Rises 23:18:15 0° 352° (N) 3,710 7.5 -20.7°
Reaches altitude 10° 23:20:47 10° 352° (N) 2,760 6.8 -21.1°
Maximum altitude 23:27:09 89° 267° (W) 998 4.5 -22.2°
Drops below altitude 10° 23:33:28 10° 175° (S) 2,742 6.9 -23.4°
Sets 23:35:58 0° 175° (S) 3,684 7.6 -23.8°
